Location: Waco, TX
(31.5480°N, 97.1670°W)
Time: 12:04:33
(UTC-06:00)

ISS - Pass Details

Date: 10 February 2018
Orbit: 402 x 407 km, 51.6° (Epoch: 25 February)

Event Time Altitude Azimuth Distance (km) Brightness Sun altitude
Rises 19:27:12 0° 326° (NW) 2,315 0.4 -16.6°
Reaches altitude 10° 19:29:30 10° 340° (NNW) 1,455 -0.9 -17.1°
Enters shadow 19:31:29 23° 13° (NNE) 907 -2.3 -17.5°
Maximum altitude 19:32:18 26° 39° (NE) 838 - -17.7°
Drops below altitude 10° 19:35:05 10° 98° (E) 1,451 - -18.3°
Sets 19:37:22 0° 112° (ESE) 2,308 - -18.8°
